This is the latest recevied weather packets stored in our database for station/object SQ9RHX-13. If no packets are shown the sender has not sent any weather packets the latest 10 day(s).
| Time | Temp. | Humidity | Pressure | Rain* | Wind** | Luminosity | Snow |
|---|---|---|---|---|---|---|---|
| 1777892703 | 26.67° C | 33% | 1016.7 hPa | 0 mm | - | 683 W/m² | - |
| 1777892402 | 25.56° C | 33% | 1016.7 hPa | 0 mm | - | 650 W/m² | - |
| 1777892103 | 26.11° C | 32% | 1016.6 hPa | 0 mm | - | 508 W/m² | - |
| 1777891803 | 26.11° C | 35% | 1016.8 hPa | 0 mm | - | 508 W/m² | - |
| 1777891503 | 25.56° C | 33% | 1016.9 hPa | 0 mm | - | 545 W/m² | - |
| 1777891204 | 26.11° C | 33% | 1016.9 hPa | 0 mm | - | 487 W/m² | - |
| 1777890903 | 26.11° C | 32% | 1016.9 hPa | 0 mm | - | 612 W/m² | - |
| 1777890602 | 26.11° C | 33% | 1017 hPa | 0 mm | - | 602 W/m² | - |
| 1777890304 | 25.56° C | 33% | 1016.9 hPa | 0 mm | - | 580 W/m² | - |
| 1777890004 | 25.56° C | 34% | 1017.2 hPa | 0 mm | - | 696 W/m² | - |
| 1777889703 | 25° C | 35% | 1017.2 hPa | 0 mm | - | 638 W/m² | - |
| 1777889403 | 25° C | 34% | 1017.2 hPa | 0 mm | - | 486 W/m² | - |
| 1777889103 | 24.44° C | 36% | 1017.3 hPa | 0 mm | - | 444 W/m² | - |
| 1777888803 | 24.44° C | 34% | 1017.2 hPa | 0 mm | - | 416 W/m² | - |
| 1777888503 | 24.44° C | 34% | 1017.3 hPa | 0 mm | - | 502 W/m² | - |
| 1777888203 | 24.44° C | 36% | 1017.5 hPa | 0 mm | - | 416 W/m² | - |
| 1777887904 | 24.44° C | 37% | 1017.4 hPa | 0 mm | - | 342 W/m² | - |
| 1777887603 | 25° C | 34% | 1017.5 hPa | 0 mm | - | 396 W/m² | - |
| 1777887304 | 25.56° C | 34% | 1017.5 hPa | 0 mm | - | 542 W/m² | - |
| 1777887004 | 25° C | 33% | 1017.3 hPa | 0 mm | - | 653 W/m² | - |
| 1777886704 | 25° C | 34% | 1017.6 hPa | 0 mm | - | 598 W/m² | - |
| 1777886404 | 24.44° C | 35% | 1017.5 hPa | 0 mm | - | 543 W/m² | - |
| 1777886104 | 24.44° C | 34% | 1017.6 hPa | 0 mm | - | 530 W/m² | - |
| 1777885803 | 25° C | 34% | 1017.5 hPa | 0 mm | - | 563 W/m² | - |
| 1777885503 | 25° C | 34% | 1017.6 hPa | 0 mm | - | 571 W/m² | - |
* Rain latest hour (hover to see other rain measurements)
** Current wind speed in m/s (hover to see current wind gust speed)